2024-173J

Last updated on Fri Oct 04 2024 00:02:05 GMT+0000 (Coordinated Universal Time)

1 61235U 24173J 24276.94185071 .00044548 00000+0 18438-2 0 9990 2 61235 97.3766 350.1967 0018166 145.3137 214.9289 15.23647602 1275
UTC large
Height (km)
Speed (km/s)
/
Latitude / Longitude
Inclination (degrees)
Orbital Period (minutes)
Azimuth
Elevation
Range (km)
Doppler Factor

Next 0 passes for location: London (51.5072 / 0.1276)

Sorry there are no passes over London.
2024-173J